Аксу

Казахстан     52°26′23″N   71°56′05″E
темп.,
°C
ветер,
м/с
пор.,
м/с
влажн.,
%
обл.,
%
осадки,
мм/ч
давл.,
гПа
погр.,
м
1 марта, пн
пн123:00+1зюз81395100 2.2 1005698
02:00+1юз71398100 0.1 1005631
05:00−1юз8158790 0.2 1006525
08:00−2зюз9168846 0.0 1007572
11:00−1зюз9138663 0.0 1008800
14:00−2зюз91287100 0.0 1009836
17:00−5зсз5894100 0.3 1012388
20:00−13сз369699 0.2 1015134
2 марта, вт
вт223:00−15зсз349690 0.2 101731
02:00−16зюз239770 0.0 101821
05:00−14з239581 0.1 101830
08:00−14зюз359586 0.1 1018159
11:00−11зюз469289 0.2 1017327
14:00−10зюз469093 0.0 1016442
17:00−10зюз479296 0.1 1016386
20:00−13зюз6109293 0.1 1016338
3 марта, ср
ср323:00−16зюз6119286 0.1 1017250
02:00−18зюз6139182 0.0 1017293
05:00−18юз7149082 0.0 1018347
08:00−19юз8148930 0.0 1017335
11:00−14юз10148764 0.0 1017413
14:00−10юз101687100 0.0 1016569
17:00−8юз91685100 0.0 1015697
20:00−5юз91785100 0.0 1014746
4 марта, чт
чт423:00−5ююз91688100 0.0 1014741
02:00−3юз101787100 0.0 1012838
05:00−3юз101689100 0.1 1012778
08:00−3ююз111885100 0.0 1010786
11:00−2ююз121884100 0.0 1009835
14:00−1юз121983100 0.0 10081126
17:000юз111787100 0.1 10081110
20:00−2ююз81490100 0.0 1007501
5 марта, пт
пт523:00−3юз71489100 0.0 1008441
02:00−4зюз4996100 0.1 1007269
05:00−10зсз599283 0.1 1011138
08:00−13зюз612860 0.0 1015223
11:00−8юз1118770 0.0 1016555
14:00−5юз13217531 0.0 1015853
17:00−5юз14227966 0.0 1015895
20:00−6зюз122083100 0.0 1016890